Flag for U.S.A. Weather past 2 weeks in Stamford, Connecticut, U.S.A.

Now
31 °F

Clear.


Feels Like: 26 °F
Forecast: 33 / 49 °F
Wind: 5 mph from Northeast

Location: Westchester County Airport


UV Index: 3 (Moderate)

Visibility: 10 mi


Pressure: 30.53 "Hg

Humidity: 73%

Dew point: 23 °F

Location of StamfordLocation

Historic Weather in Stamford

°F

Stamford temperature yesterday

Maximum temperature yesterday: 46 °F (at 2:56 PM)
Minimum temperature yesterday: 32 °F (at 3:56 AM)
Average temperature yesterday: 39 °F

Past Weeks' High & Low Weather Summary

 TemperatureHumidityPressure
High72 °F (Apr 11, 2:56 PM)100% (Apr 8, 10:56 AM)30.74 "Hg (Apr 8, 10:56 AM)
Low29 °F (Apr 16, 5:56 AM)13% (Apr 3, 4:56 PM)29.39 "Hg (Apr 8, 12:56 PM)
Average48 °F60%30.02 "Hg
* Reported Apr 3 4:56 AM — Apr 18 4:56 AM, Stamford, Weather by CustomWeather, © 2014

Note: Actual official high and low records may vary slightly from our data, if they occured in-between our weather recording intervals... More about our weather records

Advertising

Historic Weather Conditions — Data for Previous 24 hours

 ConditionsComfort  
Time TempWeatherWind HumidityBarometerVisibility
4:56 AM
Apr 18
31 °FClear.6 mph73%30.50 "Hg10 mi
3:56 AM32 °FClear.3 mph73%30.57 "Hg10 mi
2:56 AM33 °FClear.3 mph72%30.60 "Hg10 mi
1:56 AM35 °FClear.No wind67%30.60 "Hg10 mi
12:56 AM36 °FClear.3 mph70%30.60 "Hg10 mi
11:56 PM
Apr 17
36 °FClear.6 mph75%30.60 "Hg10 mi
10:56 PM37 °FClear.No wind73%30.60 "Hg10 mi
9:56 PM38 °FClear.3 mph68%30.63 "Hg10 mi
8:56 PM39 °FClear.3 mph62%30.65 "Hg10 mi
7:56 PM40 °FSunny.No wind53%30.64 "Hg10 mi
6:56 PM42 °FSunny.8 mph45%30.65 "Hg10 mi
5:56 PM45 °FSunny.7 mph38%30.65 "Hg10 mi
4:56 PM46 °FPassing clouds.13 mph33%30.66 "Hg10 mi
3:56 PM46 °FSunny.14 mph26%30.67 "Hg10 mi
2:56 PM46 °FPassing clouds.9 mph26%30.69 "Hg10 mi
1:56 PM45 °FSunny.12 mph25%30.70 "Hg10 mi
12:56 PM43 °FSunny.9 mph47%30.71 "Hg10 mi
11:56 AM42 °FSunny.9 mph47%30.73 "Hg10 mi
10:56 AM41 °FSunny.14 mph47%30.74 "Hg10 mi
9:56 AM39 °FSunny.10 mph43%30.74 "Hg10 mi
8:56 AM37 °FSunny.10 mph42%30.72 "Hg10 mi
7:56 AM34 °FSunny.9 mph46%30.71 "Hg10 mi
6:56 AM32 °FClear.9 mph54%30.68 "Hg10 mi
Weather by CustomWeather, © 2014

See weather overview